Weather History for KPMV - November, 2013

Change the Weather History Date:

Sunday, November 3, 2013

  Actual Average (KOFF) Record (KOFF)
Temperature  
Mean Temperature 48 °F -  
Max Temperature 57 °F 53 °F 79 °F (2008)
Min Temperature 38 °F 34 °F 19 °F (2006)
Degree Days  
Heating Degree Days 18    
Moisture  
Dew Point 33 °F    
Average Humidity 57    
Maximum Humidity 76    
Minimum Humidity 38    
Precipitation  
Precipitation 0.00 in - - ()
Sea Level Pressure  
Sea Level Pressure 29.91 in    
Wind  
Wind Speed 15 mph (SSE)    
Max Wind Speed 28 mph    
Max Gust Speed 39 mph    
Visibility 10 miles    
Events      
Averages and records for this station are not official NWS values.
T = Trace of Precipitation, MM = Missing Value Source: NWS Daily Summary

Daily Weather History Graph

Daily Weather History Graph

Search for Another Location

Airport or City:

Trip Planner

Search our weather history database for the weather conditions in past years. The results will help you decide how hot, cold, wet, or windy it might be!

Date:

Astronomy

Nov. 03, 2013 Rise Set
Actual Time 6:57 AM CST 5:16 PM CST
Civil Twilight 6:28 AM CST 5:45 PM CST
Nautical Twilight 5:55 AM CST 6:18 PM CST
Astronomical Twilight 5:23 AM CST 6:50 PM CST
Moon 7:02 AM CST (11/3) 5:32 PM CST (11/3)
Length of Visible Light 11h 17m
Length of Day
10h 19m
New Moon, 0% of the Moon is Illuminated
Nov 3
New Moon
Nov 9
First Quarter
Nov 17
Full
Nov 25
Last Quarter
Dec 2
New

Hourly Weather History & Observations

Time (CST) Temp. Windchill Dew Point Humidity Pressure Visibility Wind Dir Wind Speed Gust Speed Precip Events Conditions
12:15 AM 41.5 °F 35.9 °F 32.0 °F 69% 30.09 in 10.0 mi SSE 9.2 mph - N/A   Clear
12:35 AM 41.7 °F 36.7 °F 32.0 °F 68% 30.09 in 10.0 mi SSE 8.1 mph - N/A   Clear
12:55 AM 41.9 °F 36.3 °F 32.0 °F 68% 30.08 in 10.0 mi SSE 9.2 mph - N/A   Clear
1:15 AM 41.4 °F 35.2 °F 32.0 °F 69% 30.08 in 10.0 mi SSE 10.4 mph - N/A   Clear
1:35 AM 41.0 °F 35.8 °F 32.0 °F 70% 30.08 in 10.0 mi SSE 8.1 mph - N/A   Clear
1:55 AM 40.5 °F 35.1 °F 32.0 °F 72% 30.09 in 10.0 mi SSE 8.1 mph - N/A   Clear
1:15 AM 40.1 °F 34.7 °F 32.0 °F 73% 30.08 in 10.0 mi SSE 8.1 mph - N/A   Clear
1:35 AM 39.0 °F 33.4 °F 32.0 °F 76% 30.08 in 10.0 mi SSE 8.1 mph - N/A   Clear
1:55 AM 39.6 °F 33.0 °F 32.0 °F 74% 30.07 in 10.0 mi SSE 10.4 mph - N/A   Clear
2:15 AM 40.1 °F 33.6 °F 32.0 °F 73% 30.06 in 10.0 mi SSE 10.4 mph - N/A   Clear
2:35 AM 40.1 °F 33.2 °F 32.0 °F 73% 30.06 in 10.0 mi SSE 11.5 mph - N/A   Clear
2:55 AM 39.6 °F 33.0 °F 32.0 °F 74% 30.06 in 10.0 mi SSE 10.4 mph - N/A   Clear
3:15 AM 39.2 °F 31.2 °F 32.0 °F 75% 30.06 in 10.0 mi SSE 13.8 mph - N/A   Clear
3:35 AM 38.8 °F 31.2 °F 32.0 °F 76% 30.06 in 10.0 mi SSE 12.7 mph - N/A   Clear
3:55 AM 39.2 °F 31.6 °F 32.0 °F 75% 30.05 in 10.0 mi SSE 12.7 mph - N/A   Clear
4:15 AM 39.4 °F 32.3 °F 32.0 °F 75% 30.04 in 10.0 mi SSE 11.5 mph - N/A   Clear
4:35 AM 39.2 °F 32.0 °F 31.8 °F 75% 30.04 in 10.0 mi SSE 11.5 mph 16.1 mph N/A   Clear
4:55 AM 40.5 °F 32.8 °F 31.8 °F 71% 30.04 in 10.0 mi SSE 13.8 mph 20.7 mph N/A   Clear
5:15 AM 40.3 °F 32.2 °F 31.8 °F 72% 30.03 in 10.0 mi SSE 15.0 mph 18.4 mph N/A   Clear
5:35 AM 39.4 °F 31.8 °F 32.0 °F 75% 30.02 in 10.0 mi SSE 12.7 mph 19.6 mph N/A   Clear
5:55 AM 39.4 °F 31.4 °F 32.0 °F 75% 30.01 in 10.0 mi SSE 13.8 mph 20.7 mph N/A   Clear
6:15 AM 39.2 °F 30.8 °F 32.0 °F 75% 30.01 in 10.0 mi SSE 15.0 mph - N/A   Clear
6:35 AM 39.2 °F 31.2 °F 32.0 °F 75% 30.01 in 10.0 mi SE 13.8 mph - N/A   Clear
6:55 AM 39.2 °F 31.2 °F 32.0 °F 75% 30.01 in 10.0 mi SSE 13.8 mph 19.6 mph N/A   Clear
7:15 AM 39.7 °F 32.3 °F 32.4 °F 75% 30.00 in 10.0 mi SE 12.7 mph 18.4 mph N/A   Clear
7:35 AM 40.3 °F 31.9 °F 32.5 °F 74% 30.00 in 10.0 mi SE 16.1 mph 20.7 mph N/A   Clear
7:55 AM 41.9 °F 33.7 °F 32.9 °F 70% 30.00 in 10.0 mi SSE 17.3 mph 21.9 mph N/A   Clear
8:15 AM 43.5 °F 35.0 °F 32.9 °F 66% 29.99 in 10.0 mi SSE 20.7 mph 25.3 mph N/A   Clear
8:35 AM 44.8 °F 36.6 °F 33.1 °F 64% 29.98 in 10.0 mi SE 20.7 mph 29.9 mph N/A   Clear
8:55 AM 46.8 °F - 33.3 °F 59% 29.98 in 10.0 mi SSE 21.9 mph 29.9 mph N/A   Clear
9:15 AM 48.2 °F - 33.1 °F 56% 29.97 in 10.0 mi SSE 18.4 mph 33.4 mph N/A   Clear
9:35 AM 49.1 °F - 34.0 °F 56% 29.96 in 10.0 mi SSE 19.6 mph 28.8 mph N/A   Clear
9:55 AM 50.7 °F - 33.6 °F 52% 29.94 in 10.0 mi SSE 21.9 mph 32.2 mph N/A   Clear
10:15 AM 51.8 °F - 34.0 °F 51% 29.93 in 10.0 mi SSE 19.6 mph 34.5 mph N/A   Clear
10:35 AM 54.1 °F - 33.4 °F 46% 29.91 in 10.0 mi SSE 23.0 mph 32.2 mph N/A   Clear
10:55 AM 54.0 °F - 33.1 °F 45% 29.91 in 10.0 mi SSE 20.7 mph 31.1 mph N/A   Clear
11:15 AM 56.1 °F - 32.0 °F 40% 29.90 in 10.0 mi SSE 25.3 mph 33.4 mph N/A   Clear
11:35 AM 55.8 °F - 31.5 °F 40% 29.89 in 10.0 mi SSE 26.5 mph 36.8 mph N/A   Clear
11:55 AM 55.8 °F - 31.3 °F 39% 29.88 in 10.0 mi SSE 24.2 mph 39.1 mph N/A   Clear
12:15 PM 55.9 °F - 32.2 °F 41% 29.86 in 10.0 mi SSE 26.5 mph 34.5 mph N/A   Clear
12:35 PM 56.7 °F - 32.0 °F 39% 29.85 in 10.0 mi SSE 24.2 mph 39.1 mph N/A   Clear
12:55 PM 57.0 °F - 31.8 °F 38% 29.83 in 10.0 mi SSE 27.6 mph 33.4 mph N/A   Clear
1:15 PM 57.2 °F - 31.6 °F 38% 29.82 in 10.0 mi SSE 24.2 mph 35.7 mph N/A   Clear
1:35 PM 57.2 °F - 32.0 °F 38% 29.82 in 10.0 mi SSE 23.0 mph 33.4 mph N/A   Clear
1:55 PM 56.8 °F - 32.5 °F 40% 29.81 in 10.0 mi SSE 18.4 mph 34.5 mph N/A   Clear
2:15 PM 56.7 °F - 33.8 °F 42% 29.80 in 10.0 mi SSE 24.2 mph 32.2 mph N/A   Clear
2:35 PM 57.2 °F - 33.6 °F 41% 29.80 in 10.0 mi SSE 24.2 mph 28.8 mph N/A   Clear
2:55 PM 56.8 °F - 34.0 °F 42% 29.80 in 10.0 mi SSE 20.7 mph 32.2 mph N/A   Clear
3:15 PM 56.3 °F - 35.1 °F 45% 29.80 in 10.0 mi SE 20.7 mph 32.2 mph N/A   Clear
3:35 PM 57.0 °F - 34.9 °F 43% 29.79 in 10.0 mi SSE 16.1 mph 26.5 mph N/A   Clear
3:55 PM 56.7 °F - 34.7 °F 44% 29.78 in 10.0 mi SE 23.0 mph 32.2 mph N/A   Clear
4:15 PM 56.3 °F - 34.7 °F 44% 29.78 in 10.0 mi SE 21.9 mph 31.1 mph N/A   Clear
4:35 PM 55.8 °F - 34.9 °F 45% 29.78 in 10.0 mi SSE 21.9 mph 29.9 mph N/A   Clear
4:55 PM 55.8 °F - 34.5 °F 45% 29.77 in 10.0 mi SSE 26.5 mph 36.8 mph N/A   Clear
5:15 PM 55.4 °F - 34.7 °F 46% 29.77 in 10.0 mi SSE 18.4 mph 36.8 mph N/A   Clear
5:35 PM 55.2 °F - 34.7 °F 46% 29.78 in 10.0 mi SSE 20.7 mph 33.4 mph N/A   Clear
5:55 PM 54.7 °F - 34.7 °F 47% 29.78 in 10.0 mi SE 19.6 mph 27.6 mph N/A   Clear
6:15 PM 54.7 °F - 34.7 °F 47% 29.78 in 10.0 mi SSE 21.9 mph 31.1 mph N/A   Clear
6:35 PM 54.3 °F - 35.1 °F 48% 29.78 in 10.0 mi SSE 19.6 mph 27.6 mph N/A   Clear
6:55 PM 54.1 °F - 35.4 °F 49% 29.78 in 10.0 mi SSE 20.7 mph 27.6 mph N/A   Clear
7:15 PM 54.0 °F - 35.6 °F 50% 29.79 in 10.0 mi SSE 21.9 mph 29.9 mph N/A   Clear
7:35 PM 53.8 °F - 35.8 °F 51% 29.79 in 10.0 mi SSE 16.1 mph 25.3 mph N/A   Clear
7:55 PM 54.0 °F - 35.8 °F 50% 29.79 in 10.0 mi SSE 15.0 mph 24.2 mph N/A   Scattered Clouds
8:15 PM 54.0 °F - 35.8 °F 50% 29.80 in 10.0 mi SSE 19.6 mph 24.2 mph N/A   Scattered Clouds
8:35 PM 54.0 °F - 36.1 °F 51% 29.80 in 10.0 mi SSE 17.3 mph 23.0 mph N/A   Clear
8:55 PM 53.6 °F - 36.5 °F 52% 29.80 in 10.0 mi SSE 20.7 mph - N/A   Clear
9:15 PM 54.0 °F - 36.5 °F 52% 29.80 in 10.0 mi SSE 16.1 mph 23.0 mph N/A   Clear
9:35 PM 53.8 °F - 36.1 °F 51% 29.80 in 10.0 mi SSE 18.4 mph 24.2 mph N/A   Clear
9:55 PM 53.8 °F - 36.3 °F 52% 29.80 in 10.0 mi SSE 18.4 mph 24.2 mph N/A   Clear
10:15 PM 54.1 °F - 36.1 °F 51% 29.80 in 10.0 mi SSE 17.3 mph 26.5 mph N/A   Clear
10:35 PM 54.5 °F - 36.0 °F 50% 29.80 in 10.0 mi SSE 19.6 mph 29.9 mph N/A   Scattered Clouds
10:55 PM 54.1 °F - 36.3 °F 51% 29.80 in 10.0 mi SSE 17.3 mph 24.2 mph N/A   Scattered Clouds